Location: Cabeza Gorda
(40.0667°N, 4.9667°W)
Time: 19:57:03
(UTC+00:00)

CBERS-1 - Pass Details

Date: 15 January 2026
Orbit: 765 x 772 km, 98.9° (Epoch: 11 February)

Event Time Altitude Azimuth Distance (km) Brightness Sun altitude
Rises 06:56:55 0° 7° (N) 3,240 7.1 -8.4°
Reaches altitude 10° 06:59:18 10° 1° (N) 2,310 6.3 -8.0°
Maximum altitude 07:04:08 46° 290° (WNW) 1,030 4.3 -7.1°
Drops below altitude 10° 07:08:56 10° 218° (SW) 2,298 6.3 -6.2°
Sets 07:11:18 0° 212° (SSW) 3,221 7.1 -5.8°
